Voltar ao catálogo

IRNSS 1D

AtivoNavegaçãoGEO
NORAD 40547·PAYLOAD·🇮🇳 India

Lançado Mar 28, 2015 de Satish Dhawan Space Centre

Loading…

TLE

AtualizadoSource: Space-Track

Época: Sep 13, 2026, 19:34 UTC

1 40547U 15018A   26256.81556824 -.00000101  00000-0  00000-0 0  9998
2 40547  19.4021 237.1862 0009241 348.1123 184.2955  0.97958815 41771

Acompanhe IRNSS 1D em tempo real com AllMySat

Download on the App Store